User: anonymous   Login
Location: Unspecified
(48.7670°N, 0.0000°E)
Time: 22:45:09
(UTC+00:00)
Language:

XW-2F - Orbit

View from above orbital plane
View from above orbital plane
View from above satellite
View from above satellite

Ground track
Ground track

The orbit data is extracted from the following two-line orbital elements,

1 40910U 15049M   19200.53899295  .00000766  00000-0  41693-4 0  9991
2 40910  97.4617 203.8129 0016532  82.8968  16.6901 15.17326051211696
Epoch (UTC): 19 July 2019 12:56:08
Eccentricity: 0.0016532
inclination: 97.4617°
perigee height: 502 km
apogee height: 525 km
right ascension of ascending node: 203.8129°
argument of perigee: 82.8968°
revolutions per day: 15.17326051
mean anomaly at epoch: 16.6901°
orbit number at epoch: 21169

The dashed part of the orbit path shows where the satellite is in the earth's shadow,  

DLR